Year,Month,Day,Hour,Minute,Value (Times are PST for barometer in hPa)
2017,04,07,00,00,992.18
2017,04,07,00,01,992.18
2017,04,07,00,02,992.18
2017,04,07,00,03,992.18
2017,04,07,00,04,992.18
2017,04,07,00,05,992.18
2017,04,07,00,06,992.18
2017,04,07,00,07,992.18
2017,04,07,00,08,992.18
2017,04,07,00,09,992.18
2017,04,07,00,10,992.18
2017,04,07,00,11,992.18
2017,04,07,00,12,992.18
2017,04,07,00,13,992.18
2017,04,07,00,14,992.18
2017,04,07,00,15,991.81
2017,04,07,00,16,991.81
2017,04,07,00,17,991.81
2017,04,07,00,18,991.81
2017,04,07,00,19,991.81
2017,04,07,00,20,991.81
2017,04,07,00,21,991.81
2017,04,07,00,22,991.81
2017,04,07,00,23,991.81
2017,04,07,00,24,991.81
2017,04,07,00,25,991.81
2017,04,07,00,26,991.81
2017,04,07,00,27,991.81
2017,04,07,00,28,991.81
2017,04,07,00,29,991.81
2017,04,07,00,30,991.20
2017,04,07,00,31,991.20
2017,04,07,00,32,991.20
2017,04,07,00,33,991.20
2017,04,07,00,34,991.20
2017,04,07,00,35,991.20
2017,04,07,00,36,991.20
2017,04,07,00,37,991.20
2017,04,07,00,38,991.20
2017,04,07,00,39,991.20
2017,04,07,00,40,991.20
2017,04,07,00,41,991.20
2017,04,07,00,42,991.20
2017,04,07,00,43,991.20
2017,04,07,00,44,991.20
2017,04,07,00,45,990.62
2017,04,07,00,46,990.62
2017,04,07,00,47,990.62
2017,04,07,00,48,990.62
2017,04,07,00,49,990.62
2017,04,07,00,50,990.62
2017,04,07,00,51,990.62
2017,04,07,00,52,990.62
2017,04,07,00,53,990.62
2017,04,07,00,54,990.62
2017,04,07,00,55,990.62
2017,04,07,00,56,990.62
2017,04,07,00,57,990.62
2017,04,07,00,58,990.62
2017,04,07,00,59,990.62
2017,04,07,01,00,990.18
2017,04,07,01,01,990.18
2017,04,07,01,02,990.18
2017,04,07,01,03,990.18
2017,04,07,01,04,990.18
2017,04,07,01,05,990.18
2017,04,07,01,06,990.18
2017,04,07,01,07,990.18
2017,04,07,01,08,990.18
2017,04,07,01,09,990.18
2017,04,07,01,10,990.18
2017,04,07,01,11,990.18
2017,04,07,01,12,990.18
2017,04,07,01,13,990.18
2017,04,07,01,14,990.18
2017,04,07,01,15,989.57
2017,04,07,01,16,989.57
2017,04,07,01,17,989.57
2017,04,07,01,18,989.57
2017,04,07,01,19,989.57
2017,04,07,01,20,989.57
2017,04,07,01,21,989.57
2017,04,07,01,22,989.57
2017,04,07,01,23,989.57
2017,04,07,01,24,989.57
2017,04,07,01,25,989.57
2017,04,07,01,26,989.57
2017,04,07,01,27,989.57
2017,04,07,01,28,989.57
2017,04,07,01,29,989.57
2017,04,07,01,30,989.03
2017,04,07,01,31,989.03
2017,04,07,01,32,989.03
2017,04,07,01,33,989.03
2017,04,07,01,34,989.03
2017,04,07,01,35,989.03
2017,04,07,01,36,989.03
2017,04,07,01,37,989.03
2017,04,07,01,38,989.03
2017,04,07,01,39,989.03
2017,04,07,01,40,989.03
2017,04,07,01,41,989.03
2017,04,07,01,42,989.03
2017,04,07,01,43,989.03
2017,04,07,01,44,989.03
2017,04,07,01,45,988.55
2017,04,07,01,46,988.55
2017,04,07,01,47,988.55
2017,04,07,01,48,988.55
2017,04,07,01,49,988.55
2017,04,07,01,50,988.55
2017,04,07,01,51,988.55
2017,04,07,01,52,988.55
2017,04,07,01,53,988.55
2017,04,07,01,54,988.55
2017,04,07,01,55,988.55
2017,04,07,01,56,988.55
2017,04,07,01,57,988.55
2017,04,07,01,58,988.55
2017,04,07,01,59,988.55
2017,04,07,02,00,988.28
2017,04,07,02,01,988.28
2017,04,07,02,02,988.28
2017,04,07,02,03,988.28
2017,04,07,02,04,988.28
2017,04,07,02,05,988.28
2017,04,07,02,06,988.28
2017,04,07,02,07,988.28
2017,04,07,02,08,988.28
2017,04,07,02,09,988.28
2017,04,07,02,10,988.28
2017,04,07,02,11,988.28
2017,04,07,02,12,988.28
2017,04,07,02,13,988.28
2017,04,07,02,14,988.28
2017,04,07,02,15,987.44
2017,04,07,02,16,987.44
2017,04,07,02,17,987.44
2017,04,07,02,18,987.44
2017,04,07,02,19,987.44
2017,04,07,02,20,987.44
2017,04,07,02,21,987.44
2017,04,07,02,22,987.44
2017,04,07,02,23,987.44
2017,04,07,02,24,987.44
2017,04,07,02,25,987.44
2017,04,07,02,26,987.44
2017,04,07,02,27,987.44
2017,04,07,02,28,987.44
2017,04,07,02,29,987.44
2017,04,07,02,30,986.83
2017,04,07,02,31,986.83
2017,04,07,02,32,986.83
2017,04,07,02,33,986.83
2017,04,07,02,34,986.83
2017,04,07,02,35,986.83
2017,04,07,02,36,986.83
2017,04,07,02,37,986.83
2017,04,07,02,38,986.83
2017,04,07,02,39,986.83
2017,04,07,02,40,986.83
2017,04,07,02,41,986.83
2017,04,07,02,42,986.83
2017,04,07,02,43,986.83
2017,04,07,02,44,986.83
2017,04,07,02,45,986.59
2017,04,07,02,46,986.59
2017,04,07,02,47,986.59
2017,04,07,02,48,986.59
2017,04,07,02,49,986.59
2017,04,07,02,50,986.59
2017,04,07,02,51,986.59
2017,04,07,02,52,986.59
2017,04,07,02,53,986.59
2017,04,07,02,54,986.59
2017,04,07,02,55,986.59
2017,04,07,02,56,986.59
2017,04,07,02,57,986.59
2017,04,07,02,58,986.59
2017,04,07,02,59,986.59
2017,04,07,03,00,986.47
2017,04,07,03,01,986.46
2017,04,07,03,02,986.46
2017,04,07,03,03,986.46
2017,04,07,03,04,986.46
2017,04,07,03,05,986.46
2017,04,07,03,06,986.46
2017,04,07,03,07,986.46
2017,04,07,03,08,986.46
2017,04,07,03,09,986.46
2017,04,07,03,10,986.46
2017,04,07,03,11,986.46
2017,04,07,03,12,986.46
2017,04,07,03,13,986.46
2017,04,07,03,14,986.46
2017,04,07,03,15,986.73
2017,04,07,03,16,986.73
2017,04,07,03,17,986.73
2017,04,07,03,18,986.73
2017,04,07,03,19,986.73
2017,04,07,03,20,986.73
2017,04,07,03,21,986.73
2017,04,07,03,22,986.73
2017,04,07,03,23,986.73
2017,04,07,03,24,986.73
2017,04,07,03,25,986.73
2017,04,07,03,26,986.73
2017,04,07,03,27,986.73
2017,04,07,03,28,986.73
2017,04,07,03,29,986.73
2017,04,07,03,30,986.42
2017,04,07,03,31,986.42
2017,04,07,03,32,986.42
2017,04,07,03,33,986.42
2017,04,07,03,34,986.42
2017,04,07,03,35,986.42
2017,04,07,03,36,986.42
2017,04,07,03,37,986.42
2017,04,07,03,38,986.42
2017,04,07,03,39,986.42
2017,04,07,03,40,986.42
2017,04,07,03,41,986.42
2017,04,07,03,42,986.42
2017,04,07,03,43,986.42
2017,04,07,03,44,986.42
2017,04,07,03,45,986.04
2017,04,07,03,46,986.02
2017,04,07,03,47,986.02
2017,04,07,03,48,986.02
2017,04,07,03,49,986.02
2017,04,07,03,50,986.02
2017,04,07,03,51,986.02
2017,04,07,03,52,986.02
2017,04,07,03,53,986.02
2017,04,07,03,54,986.02
2017,04,07,03,55,986.02
2017,04,07,03,56,986.02
2017,04,07,03,57,986.02
2017,04,07,03,58,986.02
2017,04,07,03,59,986.02
2017,04,07,04,00,985.56
2017,04,07,04,01,985.54
2017,04,07,04,02,985.54
2017,04,07,04,03,985.54
2017,04,07,04,04,985.54
2017,04,07,04,05,985.54
2017,04,07,04,06,985.54
2017,04,07,04,07,985.54
2017,04,07,04,08,985.54
2017,04,07,04,09,985.54
2017,04,07,04,10,985.54
2017,04,07,04,11,985.54
2017,04,07,04,12,985.54
2017,04,07,04,13,985.54
2017,04,07,04,14,985.54
2017,04,07,04,15,985.37
2017,04,07,04,16,985.37
2017,04,07,04,17,985.37
2017,04,07,04,18,985.37
2017,04,07,04,19,985.37
2017,04,07,04,20,985.37
2017,04,07,04,21,985.37
2017,04,07,04,22,985.37
2017,04,07,04,23,985.37
2017,04,07,04,24,985.37
2017,04,07,04,25,985.37
2017,04,07,04,26,985.37
2017,04,07,04,27,985.37
2017,04,07,04,28,985.37
2017,04,07,04,29,985.37
2017,04,07,04,30,985.30
2017,04,07,04,31,985.30
2017,04,07,04,32,985.30
2017,04,07,04,33,985.30
2017,04,07,04,34,985.30
2017,04,07,04,35,985.30
2017,04,07,04,36,985.30
2017,04,07,04,37,985.30
2017,04,07,04,38,985.30
2017,04,07,04,39,985.30
2017,04,07,04,40,985.30
2017,04,07,04,41,985.30
2017,04,07,04,42,985.30
2017,04,07,04,43,985.30
2017,04,07,04,44,985.30
2017,04,07,04,45,985.76
2017,04,07,04,46,985.78
2017,04,07,04,47,985.78
2017,04,07,04,48,985.78
2017,04,07,04,49,985.78
2017,04,07,04,50,985.78
2017,04,07,04,51,985.78
2017,04,07,04,52,985.78
2017,04,07,04,53,985.78
2017,04,07,04,54,985.78
2017,04,07,04,55,985.78
2017,04,07,04,56,985.78
2017,04,07,04,57,985.78
2017,04,07,04,58,985.78
2017,04,07,04,59,985.78
2017,04,07,05,00,986.76
2017,04,07,05,01,986.76
2017,04,07,05,02,986.76
2017,04,07,05,03,986.76
2017,04,07,05,04,986.76
2017,04,07,05,05,986.76
2017,04,07,05,06,986.76
2017,04,07,05,07,986.76
2017,04,07,05,08,986.76
2017,04,07,05,09,986.76
2017,04,07,05,10,986.76
2017,04,07,05,11,986.76
2017,04,07,05,12,986.76
2017,04,07,05,13,986.76
2017,04,07,05,14,986.76
2017,04,07,05,15,985.95
2017,04,07,05,16,985.95
2017,04,07,05,17,985.95
2017,04,07,05,18,985.95
2017,04,07,05,19,985.95
2017,04,07,05,20,985.95
2017,04,07,05,21,985.95
2017,04,07,05,22,985.95
2017,04,07,05,23,985.95
2017,04,07,05,24,985.95
2017,04,07,05,25,985.95
2017,04,07,05,26,985.95
2017,04,07,05,27,985.95
2017,04,07,05,28,985.95
2017,04,07,05,29,985.95
2017,04,07,05,30,985.61
2017,04,07,05,31,985.61
2017,04,07,05,32,985.61
2017,04,07,05,33,985.61
2017,04,07,05,34,985.61
2017,04,07,05,35,985.61
2017,04,07,05,36,985.61
2017,04,07,05,37,985.61
2017,04,07,05,38,985.61
2017,04,07,05,39,985.61
2017,04,07,05,40,985.61
2017,04,07,05,41,985.61
2017,04,07,05,42,985.61
2017,04,07,05,43,985.61
2017,04,07,05,44,985.61
2017,04,07,05,45,985.41
2017,04,07,05,46,985.41
2017,04,07,05,47,985.41
2017,04,07,05,48,985.41
2017,04,07,05,49,985.41
2017,04,07,05,50,985.41
2017,04,07,05,51,985.41
2017,04,07,05,52,985.41
2017,04,07,05,53,985.41
2017,04,07,05,54,985.41
2017,04,07,05,55,985.41
2017,04,07,05,56,985.41
2017,04,07,05,57,985.41
2017,04,07,05,58,985.41
2017,04,07,05,59,985.41
2017,04,07,06,00,985.51
2017,04,07,06,01,985.51
2017,04,07,06,02,985.51
2017,04,07,06,03,985.51
2017,04,07,06,04,985.51
2017,04,07,06,05,985.51
2017,04,07,06,06,985.51
2017,04,07,06,07,985.51
2017,04,07,06,08,985.51
2017,04,07,06,09,985.51
2017,04,07,06,10,985.51
2017,04,07,06,11,985.51
2017,04,07,06,12,985.51
2017,04,07,06,13,985.51
2017,04,07,06,14,985.51
2017,04,07,06,15,985.63
2017,04,07,06,16,985.64
2017,04,07,06,17,985.64
2017,04,07,06,18,985.64
2017,04,07,06,19,985.64
2017,04,07,06,20,985.64
2017,04,07,06,21,985.64
2017,04,07,06,22,985.64
2017,04,07,06,23,985.64
2017,04,07,06,24,985.64
2017,04,07,06,25,985.64
2017,04,07,06,26,985.64
2017,04,07,06,27,985.64
2017,04,07,06,28,985.64
2017,04,07,06,29,985.64
2017,04,07,06,30,985.42
2017,04,07,06,31,985.41
2017,04,07,06,32,985.41
2017,04,07,06,33,985.41
2017,04,07,06,34,985.41
2017,04,07,06,35,985.41
2017,04,07,06,36,985.41
2017,04,07,06,37,985.41
2017,04,07,06,38,985.41
2017,04,07,06,39,985.41
2017,04,07,06,40,985.41
2017,04,07,06,41,985.41
2017,04,07,06,42,985.41
2017,04,07,06,43,985.41
2017,04,07,06,44,985.41
2017,04,07,06,45,985.41
2017,04,07,06,46,985.41
2017,04,07,06,47,985.41
2017,04,07,06,48,985.41
2017,04,07,06,49,985.41
2017,04,07,06,50,985.41
2017,04,07,06,51,985.41
2017,04,07,06,52,985.41
2017,04,07,06,53,985.41
2017,04,07,06,54,985.41
2017,04,07,06,55,985.41
2017,04,07,06,56,985.41
2017,04,07,06,57,985.41
2017,04,07,06,58,985.41
2017,04,07,06,59,985.41
2017,04,07,07,00,985.30
2017,04,07,07,01,985.30
2017,04,07,07,02,985.30
2017,04,07,07,03,985.30
2017,04,07,07,04,985.30
2017,04,07,07,05,985.30
2017,04,07,07,06,985.30
2017,04,07,07,07,985.30
2017,04,07,07,08,985.30
2017,04,07,07,09,985.30
2017,04,07,07,10,985.30
2017,04,07,07,11,985.30
2017,04,07,07,12,985.30
2017,04,07,07,13,985.30
2017,04,07,07,14,985.30
2017,04,07,07,15,984.93
2017,04,07,07,16,984.93
2017,04,07,07,17,984.93
2017,04,07,07,18,984.93
2017,04,07,07,19,984.93
2017,04,07,07,20,984.93
2017,04,07,07,21,984.93
2017,04,07,07,22,984.93
2017,04,07,07,23,984.93
2017,04,07,07,24,984.93
2017,04,07,07,25,984.93
2017,04,07,07,26,984.93
2017,04,07,07,27,984.93
2017,04,07,07,28,984.93
2017,04,07,07,29,984.93
2017,04,07,07,30,985.37
2017,04,07,07,31,985.37
2017,04,07,07,32,985.37
2017,04,07,07,33,985.37
2017,04,07,07,34,985.37
2017,04,07,07,35,985.37
2017,04,07,07,36,985.37
2017,04,07,07,37,985.37
2017,04,07,07,38,985.37
2017,04,07,07,39,985.37
2017,04,07,07,40,985.37
2017,04,07,07,41,985.37
2017,04,07,07,42,985.37
2017,04,07,07,43,985.37
2017,04,07,07,44,985.37
2017,04,07,07,45,985.30
2017,04,07,07,46,985.30
2017,04,07,07,47,985.30
2017,04,07,07,48,985.30
2017,04,07,07,49,985.30
2017,04,07,07,50,985.30
2017,04,07,07,51,985.30
2017,04,07,07,52,985.30
2017,04,07,07,53,985.30
2017,04,07,07,54,985.30
2017,04,07,07,55,985.30
2017,04,07,07,56,985.30
2017,04,07,07,57,985.30
2017,04,07,07,58,985.30
2017,04,07,07,59,985.30
2017,04,07,08,00,985.24
2017,04,07,08,01,985.24
2017,04,07,08,02,985.24
2017,04,07,08,03,985.24
2017,04,07,08,04,985.24
2017,04,07,08,05,985.24
2017,04,07,08,06,985.24
2017,04,07,08,07,985.24
2017,04,07,08,08,985.24
2017,04,07,08,09,985.24
2017,04,07,08,10,985.24
2017,04,07,08,11,985.24
2017,04,07,08,12,985.24
2017,04,07,08,13,985.24
2017,04,07,08,14,985.24
2017,04,07,08,15,985.11
2017,04,07,08,16,985.10
2017,04,07,08,17,985.10
2017,04,07,08,18,985.10
2017,04,07,08,19,985.10
2017,04,07,08,20,985.10
2017,04,07,08,21,985.10
2017,04,07,08,22,985.10
2017,04,07,08,23,985.10
2017,04,07,08,24,985.10
2017,04,07,08,25,985.10
2017,04,07,08,26,985.10
2017,04,07,08,27,985.10
2017,04,07,08,28,985.10
2017,04,07,08,29,985.10
2017,04,07,08,30,985.13
2017,04,07,08,31,985.13
2017,04,07,08,32,985.13
2017,04,07,08,33,985.13
2017,04,07,08,34,985.13
2017,04,07,08,35,985.13
2017,04,07,08,36,985.13
2017,04,07,08,37,985.13
2017,04,07,08,38,985.13
2017,04,07,08,39,985.13
2017,04,07,08,40,985.13
2017,04,07,08,41,985.13
2017,04,07,08,42,985.13
2017,04,07,08,43,985.13
2017,04,07,08,44,985.13
2017,04,07,08,45,984.86
2017,04,07,08,46,984.86
2017,04,07,08,47,984.86
2017,04,07,08,48,984.86
2017,04,07,08,49,984.86
2017,04,07,08,50,984.86
2017,04,07,08,51,984.86
2017,04,07,08,52,984.86
2017,04,07,08,53,984.86
2017,04,07,08,54,984.86
2017,04,07,08,55,984.86
2017,04,07,08,56,984.86
2017,04,07,08,57,984.86
2017,04,07,08,58,984.86
2017,04,07,08,59,984.86
2017,04,07,09,00,984.64
2017,04,07,09,01,984.63
2017,04,07,09,02,984.63
2017,04,07,09,03,984.63
2017,04,07,09,04,984.63
2017,04,07,09,05,984.63
2017,04,07,09,06,984.63
2017,04,07,09,07,984.63
2017,04,07,09,08,984.63
2017,04,07,09,09,984.63
2017,04,07,09,10,984.63
2017,04,07,09,11,984.63
2017,04,07,09,12,984.63
2017,04,07,09,13,984.63
2017,04,07,09,14,984.63
2017,04,07,09,15,984.42
2017,04,07,09,16,984.42
2017,04,07,09,17,984.42
2017,04,07,09,18,984.42
2017,04,07,09,19,984.42
2017,04,07,09,20,984.42
2017,04,07,09,21,984.42
2017,04,07,09,22,984.42
2017,04,07,09,23,984.42
2017,04,07,09,24,984.42
2017,04,07,09,25,984.42
2017,04,07,09,26,984.42
2017,04,07,09,27,984.42
2017,04,07,09,28,984.42
2017,04,07,09,29,984.42
2017,04,07,09,30,984.39
2017,04,07,09,31,984.39
2017,04,07,09,32,984.39
2017,04,07,09,33,984.39
2017,04,07,09,34,984.39
2017,04,07,09,35,984.39
2017,04,07,09,36,984.39
2017,04,07,09,37,984.39
2017,04,07,09,38,984.39
2017,04,07,09,39,984.39
2017,04,07,09,40,984.39
2017,04,07,09,41,984.39
2017,04,07,09,42,984.39
2017,04,07,09,43,984.39
2017,04,07,09,44,984.39
2017,04,07,09,45,984.59
2017,04,07,09,46,984.59
2017,04,07,09,47,984.59
2017,04,07,09,48,984.59
2017,04,07,09,49,984.59
2017,04,07,09,50,984.59
2017,04,07,09,51,984.59
2017,04,07,09,52,984.59
2017,04,07,09,53,984.59
2017,04,07,09,54,984.59
2017,04,07,09,55,984.59
2017,04,07,09,56,984.59
2017,04,07,09,57,984.59
2017,04,07,09,58,984.59
2017,04,07,09,59,984.59
2017,04,07,10,00,984.49
2017,04,07,10,01,984.49
2017,04,07,10,02,984.49
2017,04,07,10,03,984.49
2017,04,07,10,04,984.49
2017,04,07,10,05,984.49
2017,04,07,10,06,984.49
2017,04,07,10,07,984.49
2017,04,07,10,08,984.49
2017,04,07,10,09,984.49
2017,04,07,10,10,984.49
2017,04,07,10,11,984.49
2017,04,07,10,12,984.49
2017,04,07,10,13,984.49
2017,04,07,10,14,984.49
2017,04,07,10,15,984.53
2017,04,07,10,16,984.53
2017,04,07,10,17,984.53
2017,04,07,10,18,984.53
2017,04,07,10,19,984.53
2017,04,07,10,20,984.53
2017,04,07,10,21,984.53
2017,04,07,10,22,984.53
2017,04,07,10,23,984.53
2017,04,07,10,24,984.53
2017,04,07,10,25,984.53
2017,04,07,10,26,984.53
2017,04,07,10,27,984.53
2017,04,07,10,28,984.53
2017,04,07,10,29,984.53
2017,04,07,10,30,984.73
2017,04,07,10,31,984.73
2017,04,07,10,32,984.73
2017,04,07,10,33,984.73
2017,04,07,10,34,984.73
2017,04,07,10,35,984.73
2017,04,07,10,36,984.73
2017,04,07,10,37,984.73
2017,04,07,10,38,984.73
2017,04,07,10,39,984.73
2017,04,07,10,40,984.73
2017,04,07,10,41,984.73
2017,04,07,10,42,984.73
2017,04,07,10,43,984.73
2017,04,07,10,44,984.73
2017,04,07,10,45,984.38
2017,04,07,10,46,984.36
2017,04,07,10,47,984.36
2017,04,07,10,48,984.36
2017,04,07,10,49,984.36
2017,04,07,10,50,984.36
2017,04,07,10,51,984.36
2017,04,07,10,52,984.36
2017,04,07,10,53,984.36
2017,04,07,10,54,984.36
2017,04,07,10,55,984.36
2017,04,07,10,56,984.36
2017,04,07,10,57,984.36
2017,04,07,10,58,984.36
2017,04,07,10,59,984.36
2017,04,07,11,00,984.29
2017,04,07,11,01,984.29
2017,04,07,11,02,984.29
2017,04,07,11,03,984.29
2017,04,07,11,04,984.29
2017,04,07,11,05,984.29
2017,04,07,11,06,984.29
2017,04,07,11,07,984.29
2017,04,07,11,08,984.29
2017,04,07,11,09,984.29
2017,04,07,11,10,984.29
2017,04,07,11,11,984.29
2017,04,07,11,12,984.29
2017,04,07,11,13,984.29
2017,04,07,11,14,984.29
2017,04,07,11,15,984.41
2017,04,07,11,16,984.42
2017,04,07,11,17,984.42
2017,04,07,11,18,984.42
2017,04,07,11,19,984.42
2017,04,07,11,20,984.42
2017,04,07,11,21,984.42
2017,04,07,11,22,984.42
2017,04,07,11,23,984.42
2017,04,07,11,24,984.42
2017,04,07,11,25,984.42
2017,04,07,11,26,984.42
2017,04,07,11,27,984.42
2017,04,07,11,28,984.42
2017,04,07,11,29,984.42
2017,04,07,11,30,984.76
2017,04,07,11,31,984.76
2017,04,07,11,32,984.76
2017,04,07,11,33,984.76
2017,04,07,11,34,984.76
2017,04,07,11,35,984.76
2017,04,07,11,36,984.76
2017,04,07,11,37,984.76
2017,04,07,11,38,984.76
2017,04,07,11,39,984.76
2017,04,07,11,40,984.76
2017,04,07,11,41,984.76
2017,04,07,11,42,984.76
2017,04,07,11,43,984.76
2017,04,07,11,44,984.76
2017,04,07,11,45,984.86
2017,04,07,11,46,984.86
2017,04,07,11,47,984.86
2017,04,07,11,48,984.86
2017,04,07,11,49,984.86
2017,04,07,11,50,984.86
2017,04,07,11,51,984.86
2017,04,07,11,52,984.86
2017,04,07,11,53,984.86
2017,04,07,11,54,984.86
2017,04,07,11,55,984.86
2017,04,07,11,56,984.86
2017,04,07,11,57,984.86
2017,04,07,11,58,984.86
2017,04,07,11,59,984.86
2017,04,07,12,00,985.15
2017,04,07,12,01,985.17
2017,04,07,12,02,985.17
2017,04,07,12,03,985.17
2017,04,07,12,04,985.17
2017,04,07,12,05,985.17
2017,04,07,12,06,985.17
2017,04,07,12,07,985.17
2017,04,07,12,08,985.17
2017,04,07,12,09,985.17
2017,04,07,12,10,985.17
2017,04,07,12,11,985.17
2017,04,07,12,12,985.17
2017,04,07,12,13,985.17
2017,04,07,12,14,985.17
2017,04,07,12,15,985.33
2017,04,07,12,16,985.34
2017,04,07,12,17,985.34
2017,04,07,12,18,985.34
2017,04,07,12,19,985.34
2017,04,07,12,20,985.34
2017,04,07,12,21,985.34
2017,04,07,12,22,985.34
2017,04,07,12,23,985.34
2017,04,07,12,24,985.34
2017,04,07,12,25,985.34
2017,04,07,12,26,985.34
2017,04,07,12,27,985.34
2017,04,07,12,28,985.34
2017,04,07,12,29,985.34
2017,04,07,12,30,985.37
2017,04,07,12,31,985.37
2017,04,07,12,32,985.37
2017,04,07,12,33,985.37
2017,04,07,12,34,985.37
2017,04,07,12,35,985.37
2017,04,07,12,36,985.37
2017,04,07,12,37,985.37
2017,04,07,12,38,985.37
2017,04,07,12,39,985.37
2017,04,07,12,40,985.37
2017,04,07,12,41,985.37
2017,04,07,12,42,985.37
2017,04,07,12,43,985.37
2017,04,07,12,44,985.37
2017,04,07,12,45,985.54
2017,04,07,12,46,985.54
2017,04,07,12,47,985.54
2017,04,07,12,48,985.54
2017,04,07,12,49,985.54
2017,04,07,12,50,985.54
2017,04,07,12,51,985.54
2017,04,07,12,52,985.54
2017,04,07,12,53,985.54
2017,04,07,12,54,985.54
2017,04,07,12,55,985.54
2017,04,07,12,56,985.54
2017,04,07,12,57,985.54
2017,04,07,12,58,985.54
2017,04,07,12,59,985.54
2017,04,07,13,00,985.70
2017,04,07,13,01,985.71
2017,04,07,13,02,985.71
2017,04,07,13,03,985.71
2017,04,07,13,04,985.71
2017,04,07,13,05,985.71
2017,04,07,13,06,985.71
2017,04,07,13,07,985.71
2017,04,07,13,08,985.71
2017,04,07,13,09,985.71
2017,04,07,13,10,985.71
2017,04,07,13,11,985.71
2017,04,07,13,12,985.71
2017,04,07,13,13,985.71
2017,04,07,13,14,985.71
2017,04,07,13,15,986.02
2017,04,07,13,16,986.02
2017,04,07,13,17,986.02
2017,04,07,13,18,986.02
2017,04,07,13,19,986.02
2017,04,07,13,20,986.02
2017,04,07,13,21,986.02
2017,04,07,13,22,986.02
2017,04,07,13,23,986.02
2017,04,07,13,24,986.02
2017,04,07,13,25,986.02
2017,04,07,13,26,986.02
2017,04,07,13,27,986.02
2017,04,07,13,28,986.02
2017,04,07,13,29,986.02
2017,04,07,13,30,986.21
2017,04,07,13,31,986.22
2017,04,07,13,32,986.22
2017,04,07,13,33,986.22
2017,04,07,13,34,986.22
2017,04,07,13,35,986.22
2017,04,07,13,36,986.22
2017,04,07,13,37,986.22
2017,04,07,13,38,986.22
2017,04,07,13,39,986.22
2017,04,07,13,40,986.22
2017,04,07,13,41,986.22
2017,04,07,13,42,986.22
2017,04,07,13,43,986.22
2017,04,07,13,44,986.22
2017,04,07,13,45,986.18
2017,04,07,13,46,986.18
2017,04,07,13,47,986.18
2017,04,07,13,48,986.18
2017,04,07,13,49,986.18
2017,04,07,13,50,986.18
2017,04,07,13,51,986.18
2017,04,07,13,52,986.18
2017,04,07,13,53,986.18
2017,04,07,13,54,986.18
2017,04,07,13,55,986.18
2017,04,07,13,56,986.18
2017,04,07,13,57,986.18
2017,04,07,13,58,986.18
2017,04,07,13,59,986.18
2017,04,07,14,00,986.57
2017,04,07,14,01,986.59
2017,04,07,14,02,986.59
2017,04,07,14,03,986.59
2017,04,07,14,04,986.59
2017,04,07,14,05,986.59
2017,04,07,14,06,986.59
2017,04,07,14,07,986.59
2017,04,07,14,08,986.59
2017,04,07,14,09,986.59
2017,04,07,14,10,986.59
2017,04,07,14,11,986.59
2017,04,07,14,12,986.59
2017,04,07,14,13,986.59
2017,04,07,14,14,986.59
2017,04,07,14,15,987.04
2017,04,07,14,16,987.06
2017,04,07,14,17,987.06
2017,04,07,14,18,987.06
2017,04,07,14,19,987.06
2017,04,07,14,20,987.06
2017,04,07,14,21,987.06
2017,04,07,14,22,987.06
2017,04,07,14,23,987.06
2017,04,07,14,24,987.06
2017,04,07,14,25,987.06
2017,04,07,14,26,987.06
2017,04,07,14,27,987.06
2017,04,07,14,28,987.06
2017,04,07,14,29,987.06
2017,04,07,14,30,987.49
2017,04,07,14,31,987.51
2017,04,07,14,32,987.51
2017,04,07,14,33,987.51
2017,04,07,14,34,987.51
2017,04,07,14,35,987.51
2017,04,07,14,36,987.51
2017,04,07,14,37,987.51
2017,04,07,14,38,987.51
2017,04,07,14,39,987.51
2017,04,07,14,40,987.51
2017,04,07,14,41,987.51
2017,04,07,14,42,987.51
2017,04,07,14,43,987.51
2017,04,07,14,44,987.51
2017,04,07,14,45,987.79
2017,04,07,14,46,987.81
2017,04,07,14,47,987.81
2017,04,07,14,48,987.81
2017,04,07,14,49,987.81
2017,04,07,14,50,987.81
2017,04,07,14,51,987.81
2017,04,07,14,52,987.81
2017,04,07,14,53,987.81
2017,04,07,14,54,987.81
2017,04,07,14,55,987.81
2017,04,07,14,56,987.81
2017,04,07,14,57,987.81
2017,04,07,14,58,987.81
2017,04,07,14,59,987.81
2017,04,07,15,00,987.98
2017,04,07,15,01,987.98
2017,04,07,15,02,987.98
2017,04,07,15,03,987.98
2017,04,07,15,04,987.98
2017,04,07,15,05,987.98
2017,04,07,15,06,987.98
2017,04,07,15,07,987.98
2017,04,07,15,08,987.98
2017,04,07,15,09,987.98
2017,04,07,15,10,987.98
2017,04,07,15,11,987.98
2017,04,07,15,12,987.98
2017,04,07,15,13,987.98
2017,04,07,15,14,987.98
2017,04,07,15,15,988.08
2017,04,07,15,16,988.08
2017,04,07,15,17,988.08
2017,04,07,15,18,988.08
2017,04,07,15,19,988.08
2017,04,07,15,20,988.08
2017,04,07,15,21,988.08
2017,04,07,15,22,988.08
2017,04,07,15,23,988.08
2017,04,07,15,24,988.08
2017,04,07,15,25,988.08
2017,04,07,15,26,988.08
2017,04,07,15,27,988.08
2017,04,07,15,28,988.08
2017,04,07,15,29,988.08
2017,04,07,15,30,988.11
2017,04,07,15,31,988.11
2017,04,07,15,32,988.11
2017,04,07,15,33,988.11
2017,04,07,15,34,988.11
2017,04,07,15,35,988.11
2017,04,07,15,36,988.11
2017,04,07,15,37,988.11
2017,04,07,15,38,988.11
2017,04,07,15,39,988.11
2017,04,07,15,40,988.11
2017,04,07,15,41,988.11
2017,04,07,15,42,988.11
2017,04,07,15,43,988.11
2017,04,07,15,44,988.11
2017,04,07,15,45,988.57
2017,04,07,15,46,988.59
2017,04,07,15,47,988.59
2017,04,07,15,48,988.59
2017,04,07,15,49,988.59
2017,04,07,15,50,988.59
2017,04,07,15,51,988.59
2017,04,07,15,52,988.59
2017,04,07,15,53,988.59
2017,04,07,15,54,988.59
2017,04,07,15,55,988.59
2017,04,07,15,56,988.59
2017,04,07,15,57,988.59
2017,04,07,15,58,988.59
2017,04,07,15,59,988.59
2017,04,07,16,00,988.40
2017,04,07,16,01,988.39
2017,04,07,16,02,988.39
2017,04,07,16,03,988.39
2017,04,07,16,04,988.39
2017,04,07,16,05,988.39
2017,04,07,16,06,988.39
2017,04,07,16,07,988.39
2017,04,07,16,08,988.39
2017,04,07,16,09,988.39
2017,04,07,16,10,988.39
2017,04,07,16,11,988.39
2017,04,07,16,12,988.39
2017,04,07,16,13,988.39
2017,04,07,16,14,988.39
2017,04,07,16,15,988.70
2017,04,07,16,16,988.72
2017,04,07,16,17,988.72
2017,04,07,16,18,988.72
2017,04,07,16,19,988.72
2017,04,07,16,20,988.72
2017,04,07,16,21,988.72
2017,04,07,16,22,988.72
2017,04,07,16,23,988.72
2017,04,07,16,24,988.72
2017,04,07,16,25,988.72
2017,04,07,16,26,988.72
2017,04,07,16,27,988.72
2017,04,07,16,28,988.72
2017,04,07,16,29,988.72
2017,04,07,16,30,988.83
2017,04,07,16,31,988.83
2017,04,07,16,32,988.83
2017,04,07,16,33,988.83
2017,04,07,16,34,988.83
2017,04,07,16,35,988.83
2017,04,07,16,36,988.83